This demonstration page uses our WeatherBlox Daily Observations layout. Learn more.

Left ArrowRight Arrow

Hourly Observations for December 7, 2022

Temp ( °F °C ) Dew Point ( °F °C ) Humidity (%) Winds ( mph kmh ) Pressure ( in mb ) Visibility ( mi km ) Precip ( " mm )
12:56 am 00:56 Clear 28 -2.2 20 -6.7 71 71 SW 8 13 30.10 1019 10 16 0.00 0.00
1:56 am 01:56 Clear 26 -3.3 19 -7.2 74 74 WNW 6 9 30.11 1020 10 16 0.00 0.00
2:56 am 02:56 Clear 26 -3.3 19 -7.2 74 74 SSW 5 7 30.13 1020 10 16 0.00 0.00
3:56 am 03:56 Clear 25 -3.9 19 -7.2 78 78 SSW 8 13 30.13 1020 10 16 0.00 0.00
4:56 am 04:56 Clear 26 -3.3 19 -7.2 74 74 W 6 9 30.14 1021 10 16 0.00 0.00
5:56 am 05:56 Clear 22 -5.6 17 -8.3 81 81 NW 6 9 30.18 1022 10 16 0.00 0.00
6:56 am 06:56 Clear 22 -5.6 16 -8.9 77 77 SSW 5 7 30.19 1023 10 16 0.00 0.00
7:56 am 07:56 Sunny 22 -5.6 16 -8.9 77 77 NW 7 11 30.25 1024 10 16 0.00 0.00
8:56 am 08:56 Sunny 26 -3.3 18 -7.8 71 71 NW 8 13 30.25 1025 10 16 0.00 0.00
9:56 am 09:56 Sunny 36 2.2 20 -6.7 52 52 NNW 10 17 30.27 1025 10 16 0.00 0.00
10:56 am 10:56 Sunny 38 3.3 19 -7.2 46 46 N 15 24 30.30 1026 10 16 0.00 0.00
11:56 am 11:56 Sunny 34 1.1 19 -7.2 54 54 N 16 26 30.31 1026 10 16 0.00 0.00
12:56 pm 12:56 Sunny 31 -0.6 18 -7.8 58 58 NNE 16 26 30.32 1027 10 16 0.00 0.00
1:56 pm 13:56 Sunny 30 -1.1 18 -7.8 60 60 NNE 17 28 30.32 1027 10 16 0.00 0.00
2:56 pm 14:56 Sunny 30 -1.1 18 -7.8 60 60 NNE 14 22 30.34 1027 10 16 0.00 0.00
3:56 pm 15:56 Sunny 28 -2.2 18 -7.8 65 65 NNE 12 19 30.35 1028 10 16 0.00 0.00
4:56 pm 16:56 Sunny 25 -3.9 17 -8.3 71 71 NE 12 19 30.36 1028 10 16 0.00 0.00
5:56 pm 17:56 Clear 20 -6.7 15 -9.4 81 81 NE 9 15 30.38 1029 10 16 0.00 0.00
6:56 pm 18:56 Clear 16 -8.9 13 -10.6 87 87 NNE 6 9 30.40 1029 10 16 0.00 0.00
7:56 pm 19:56 Clear 16 -8.9 13 -10.6 87 87 N 6 9 30.40 1029 10 16 0.00 0.00
8:56 pm 20:56 Clear 16 -8.9 14 -10 92 92 NNE 7 11 30.38 1029 10 16 0.00 0.00
9:56 pm 21:56 Clear 14 -10 12 -11.1 92 92 NNE 6 9 30.37 1028 10 16 0.00 0.00
10:56 pm 22:56 Clear 14 -10 12 -11.1 92 92 NNE 8 13 30.35 1028 10 16 0.00 0.00
11:56 pm 23:56 Clear 15 -9.4 13 -10.6 91 91 NNE 6 9 30.35 1028 10 16 0.00 0.00

Powered by AerisWeather